When you browse on this site, cookies collect data to enhance your experience and personalize the content and advertising you see.
Visit our Privacy Policy to learn more. By continuing to use the site, you agree to this use of cookies and data.
  • In United Kingdom
  • List of Countries
  • For 7 days
  • Water Temperature
  • Satellite Maps
  • Weather Map
  • Weather Widgets
  • user-avatar
    Login

    Hourly Weather Kuweit

    Today, 23 February, Saturday

    Time Temperature Precipitation Wind Pressure Humidity
    00:00 +17°C° 0 mm 3 mps 761 mmHg 62%
    01:00 +17°C° 0 mm 3 mps 761 mmHg 63%
    02:00 +17°C° 0 mm 4 mps 761 mmHg 64%
    03:00 +17°C° 0 mm 3 mps 761 mmHg 67%
    04:00 +17°C° 0 mm 3 mps 761 mmHg 67%
    05:00 +15°C° 0 mm 4 mps 761 mmHg 68%
    06:00 +15°C° 0 mm 4 mps 761 mmHg 68%
    07:00 +17°C° 0 mm 4 mps 761 mmHg 64%
    08:00 +17°C° 0 mm 5 mps 761 mmHg 60%
    09:00 +19°C° 0 mm 6 mps 761 mmHg 56%
    10:00 +19°C° 0 mm 6 mps 761 mmHg 52%
    11:00 +20°C° 0 mm 6 mps 761 mmHg 48%
    12:00 +21°C° 0 mm 7 mps 761 mmHg 44%
    13:00 +21°C° 0 mm 7 mps 760 mmHg 44%
    14:00 +22°C° 0 mm 6 mps 760 mmHg 44%
    15:00 +22°C° 0 mm 6 mps 759 mmHg 43%
    16:00 +21°C° 0 mm 6 mps 759 mmHg 50%
    17:00 +20°C° 0 mm 5 mps 759 mmHg 56%
    18:00 +20°C° 0 mm 5 mps 759 mmHg 62%
    19:00 +19°C° 0 mm 5 mps 759 mmHg 66%
    20:00 +19°C° 0 mm 4 mps 760 mmHg 71%
    21:00 +18°C° 0 mm 3 mps 760 mmHg 76%
    22:00 +18°C° 0 mm 3 mps 760 mmHg 78%
    23:00 +18°C° 0 mm 3 mps 760 mmHg 80%

    Tomorrow, 24 February, Sunday

    Time Temperature Precipitation Wind Pressure Humidity
    00:00 +18°C° 0 mm 2 mps 760 mmHg 82%
    01:00 +17°C° 0 mm 2 mps 760 mmHg 82%
    02:00 +18°C° 0 mm 1 mps 759 mmHg 83%
    03:00 +18°C° 0 mm 1 mps 759 mmHg 83%
    04:00 +18°C° 0 mm 1 mps 760 mmHg 84%
    05:00 +15°C° 0 mm 0 mps 760 mmHg 84%
    06:00 +15°C° 0 mm 0 mps 760 mmHg 84%
    07:00 +16°C° 0 mm 0 mps 760 mmHg 79%
    08:00 +17°C° 0 mm 0 mps 761 mmHg 74%
    09:00 +20°C° 0 mm 1 mps 761 mmHg 69%
    10:00 +21°C° 0 mm 1 mps 761 mmHg 63%
    11:00 +20°C° 0 mm 0 mps 761 mmHg 57%
    12:00 +21°C° 0 mm 0 mps 761 mmHg 52%
    13:00 +23°C° 0 mm 1 mps 761 mmHg 45%
    14:00 +24°C° 0 mm 1 mps 760 mmHg 39%
    15:00 +25°C° 0 mm 2 mps 760 mmHg 33%
    16:00 +25°C° 0 mm 2 mps 760 mmHg 32%
    17:00 +25°C° 0 mm 2 mps 760 mmHg 30%
    18:00 +24°C° 0 mm 2 mps 760 mmHg 29%
    19:00 +24°C° 0 mm 3 mps 761 mmHg 30%
    20:00 +22°C° 0 mm 3 mps 761 mmHg 30%
    21:00 +22°C° 0 mm 3 mps 762 mmHg 31%
    22:00 +21°C° 0 mm 4 mps 762 mmHg 33%
    23:00 +21°C° 0 mm 4 mps 762 mmHg 35%

    Day after tomorrow, 25 February, Monday

    Time Temperature Precipitation Wind Pressure Humidity
    00:00 +20°C° 0 mm 4 mps 762 mmHg 37%
    01:00 +20°C° 0 mm 4 mps 762 mmHg 38%
    02:00 +19°C° 0 mm 5 mps 762 mmHg 39%
    03:00 +19°C° 0 mm 5 mps 762 mmHg 40%
    04:00 +19°C° 0 mm 5 mps 762 mmHg 41%
    05:00 +17°C° 0 mm 5 mps 763 mmHg 42%
    06:00 +17°C° 0 mm 5 mps 763 mmHg 43%
    07:00 +17°C° 0 mm 5 mps 763 mmHg 40%
    08:00 +19°C° 0 mm 6 mps 764 mmHg 38%
    09:00 +20°C° 0 mm 6 mps 764 mmHg 35%
    10:00 +21°C° 0 mm 5 mps 764 mmHg 31%
    11:00 +22°C° 0 mm 5 mps 764 mmHg 28%
    12:00 +23°C° 0 mm 5 mps 764 mmHg 24%
    13:00 +25°C° 0 mm 5 mps 763 mmHg 22%
    14:00 +25°C° 0 mm 5 mps 762 mmHg 20%
    15:00 +26°C° 0 mm 5 mps 762 mmHg 18%
    16:00 +25°C° 0 mm 4 mps 762 mmHg 18%
    17:00 +25°C° 0 mm 4 mps 762 mmHg 18%
    18:00 +23°C° 0 mm 4 mps 762 mmHg 18%
    19:00 +22°C° 0 mm 4 mps 762 mmHg 19%
    20:00 +22°C° 0 mm 3 mps 762 mmHg 20%
    21:00 +21°C° 0 mm 3 mps 763 mmHg 21%
    22:00 +21°C° 0 mm 3 mps 763 mmHg 21%
    23:00 +20°C° 0 mm 3 mps 762 mmHg 22%

    26 February, Tuesday

    Time Temperature Precipitation Wind Pressure Humidity
    00:00 +20°C° 0 mm 3 mps 762 mmHg 23%
    01:00 +19°C° 0 mm 3 mps 762 mmHg 23%
    02:00 +19°C° 0 mm 3 mps 762 mmHg 24%
    03:00 +19°C° 0 mm 3 mps 761 mmHg 24%
    04:00 +18°C° 0 mm 2 mps 761 mmHg 25%
    05:00 +18°C° 0 mm 2 mps 761 mmHg 26%
    06:00 +18°C° 0 mm 1 mps 761 mmHg 27%
    07:00 +18°C° 0 mm 2 mps 761 mmHg 26%
    08:00 +19°C° 0 mm 2 mps 761 mmHg 26%
    09:00 +20°C° 0 mm 3 mps 762 mmHg 26%
    10:00 +21°C° 0 mm 4 mps 761 mmHg 24%
    11:00 +22°C° 0 mm 5 mps 760 mmHg 23%
    12:00 +23°C° 0 mm 6 mps 760 mmHg 22%
    13:00 +23°C° 0 mm 6 mps 759 mmHg 23%
    14:00 +23°C° 0 mm 6 mps 758 mmHg 24%
    15:00 +24°C° 0 mm 6 mps 757 mmHg 25%
    16:00 +23°C° 0.1 mm 7 mps 756 mmHg 28%
    17:00 +22°C° 0.1 mm 7 mps 756 mmHg 31%
    18:00 +21°C° 0.1 mm 7 mps 755 mmHg 34%
    19:00 +21°C° 0.1 mm 8 mps 755 mmHg 36%
    20:00 +21°C° 0.1 mm 8 mps 754 mmHg 37%
    21:00 +21°C° 0.1 mm 9 mps 754 mmHg 39%
    22:00 +19°C° 0.1 mm 9 mps 753 mmHg 43%
    23:00 +19°C° 0.1 mm 9 mps 752 mmHg 47%

    27 February, Wednesday

    Time Temperature Precipitation Wind Pressure Humidity
    00:00 +19°C° 0.1 mm 10 mps 752 mmHg 50%
    01:00 +19°C° 0 mm 10 mps 751 mmHg 52%
    02:00 +19°C° 0 mm 9 mps 751 mmHg 53%
    03:00 +19°C° 0 mm 9 mps 750 mmHg 54%
    04:00 +20°C° 0 mm 7 mps 751 mmHg 53%
    05:00 +20°C° 0 mm 5 mps 751 mmHg 53%
    06:00 +20°C° 0 mm 3 mps 752 mmHg 52%
    07:00 +20°C° 0 mm 4 mps 752 mmHg 47%
    08:00 +21°C° 0 mm 5 mps 753 mmHg 41%
    09:00 +21°C° 0 mm 7 mps 754 mmHg 35%
    10:00 +22°C° 0 mm 6 mps 754 mmHg 28%
    11:00 +23°C° 0 mm 6 mps 754 mmHg 22%
    12:00 +24°C° 0 mm 6 mps 754 mmHg 15%
    13:00 +24°C° 0 mm 6 mps 753 mmHg 16%
    14:00 +26°C° 0 mm 6 mps 753 mmHg 17%
    15:00 +26°C° 0 mm 5 mps 753 mmHg 17%
    16:00 +25°C° 0 mm 5 mps 753 mmHg 19%
    17:00 +25°C° 0 mm 4 mps 753 mmHg 20%
    18:00 +23°C° 0 mm 4 mps 754 mmHg 21%
    19:00 +24°C° 0 mm 3 mps 754 mmHg 23%
    20:00 +23°C° 0 mm 2 mps 755 mmHg 25%
    21:00 +21°C° 0 mm 0 mps 755 mmHg 27%
    22:00 +22°C° 0 mm 1 mps 755 mmHg 26%
    23:00 +22°C° 0 mm 1 mps 755 mmHg 26%

    28 February, Thursday

    Time Temperature Precipitation Wind Pressure Humidity
    00:00 +22°C° 0 mm 1 mps 755 mmHg 26%
    01:00 +21°C° 0 mm 1 mps 755 mmHg 27%
    02:00 +21°C° 0 mm 1 mps 754 mmHg 29%
    03:00 +18°C° 0 mm 0 mps 754 mmHg 30%
    04:00 +20°C° 0 mm 1 mps 754 mmHg 31%
    05:00 +20°C° 0 mm 1 mps 755 mmHg 31%
    06:00 +19°C° 0 mm 2 mps 755 mmHg 32%
    07:00 +20°C° 0 mm 2 mps 755 mmHg 32%
    08:00 +21°C° 0 mm 2 mps 756 mmHg 31%
    09:00 +21°C° 0 mm 3 mps 756 mmHg 31%
    10:00 +23°C° 0 mm 2 mps 756 mmHg 29%
    11:00 +24°C° 0 mm 2 mps 755 mmHg 26%
    12:00 +25°C° 0 mm 2 mps 755 mmHg 24%
    13:00 +25°C° 0 mm 2 mps 754 mmHg 24%
    14:00 +25°C° 0 mm 2 mps 754 mmHg 24%
    15:00 +26°C° 0 mm 2 mps 753 mmHg 23%
    16:00 +25°C° 0 mm 2 mps 753 mmHg 25%
    17:00 +25°C° 0 mm 3 mps 753 mmHg 26%
    18:00 +24°C° 0 mm 3 mps 753 mmHg 28%
    19:00 +24°C° 0 mm 3 mps 754 mmHg 28%
    20:00 +22°C° 0 mm 3 mps 754 mmHg 29%
    21:00 +22°C° 0 mm 3 mps 755 mmHg 29%
    22:00 +22°C° 0 mm 4 mps 755 mmHg 28%
    23:00 +21°C° 0 mm 4 mps 755 mmHg 27%
    Show more